When you browse on this site, cookies collect data to enhance your experience and personalize the content and advertising you see.
Visit our Privacy Policy to learn more. By continuing to use the site, you agree to this use of cookies and data.
  • în România
  • Lista ţărilor
  • Pe 7 zile
  • Temperatura apei
  • Hartă satelitară
  • Meteo pe hartă
  • Widget-uri
  • user-avatar
    Intrare

    Meteo pe oră la Mahdia

    Astăzi, 18 Decembrie, Marţi

    Timp Temperatura Precipitaţii Vânt Presiune Umiditate
    00:00 +13°C° 0 mm 11 m/s 769 mmHg 64%
    01:00 +12°C° 0 mm 11 m/s 769 mmHg 66%
    02:00 +12°C° 0 mm 11 m/s 769 mmHg 67%
    03:00 +12°C° 0 mm 11 m/s 769 mmHg 68%
    04:00 +12°C° 0 mm 11 m/s 769 mmHg 70%
    05:00 +12°C° 0 mm 11 m/s 770 mmHg 71%
    06:00 +11°C° 0 mm 10 m/s 770 mmHg 72%
    07:00 +11°C° 0 mm 10 m/s 770 mmHg 73%
    08:00 +12°C° 0 mm 10 m/s 770 mmHg 69%
    09:00 +13°C° 0 mm 10 m/s 770 mmHg 65%
    10:00 +14°C° 0 mm 10 m/s 771 mmHg 62%
    11:00 +16°C° 0 mm 9 m/s 771 mmHg 58%
    12:00 +16°C° 0 mm 8 m/s 771 mmHg 54%
    13:00 +17°C° 0 mm 8 m/s 771 mmHg 50%
    14:00 +17°C° 0 mm 7 m/s 770 mmHg 49%
    15:00 +17°C° 0 mm 7 m/s 770 mmHg 48%
    16:00 +17°C° 0 mm 6 m/s 770 mmHg 47%
    17:00 +16°C° 0 mm 5 m/s 770 mmHg 51%
    18:00 +15°C° 0 mm 5 m/s 770 mmHg 55%
    19:00 +14°C° 0 mm 4 m/s 771 mmHg 59%
    20:00 +14°C° 0 mm 3 m/s 771 mmHg 60%
    21:00 +15°C° 0 mm 2 m/s 771 mmHg 61%
    22:00 +14°C° 0 mm 2 m/s 771 mmHg 62%
    23:00 +14°C° 0 mm 2 m/s 770 mmHg 60%

    Mâine, 19 Decembrie, Miercuri

    Timp Temperatura Precipitaţii Vânt Presiune Umiditate
    00:00 +14°C° 0 mm 2 m/s 770 mmHg 58%
    01:00 +13°C° 0 mm 3 m/s 770 mmHg 55%
    02:00 +12°C° 0 mm 3 m/s 770 mmHg 54%
    03:00 +12°C° 0 mm 4 m/s 769 mmHg 52%
    04:00 +12°C° 0 mm 4 m/s 769 mmHg 51%
    05:00 +12°C° 0 mm 4 m/s 769 mmHg 51%
    06:00 +12°C° 0 mm 5 m/s 769 mmHg 51%
    07:00 +10°C° 0 mm 5 m/s 769 mmHg 51%
    08:00 +11°C° 0 mm 6 m/s 769 mmHg 48%
    09:00 +13°C° 0 mm 6 m/s 769 mmHg 45%
    10:00 +14°C° 0 mm 7 m/s 769 mmHg 42%
    11:00 +15°C° 0 mm 6 m/s 769 mmHg 39%
    12:00 +17°C° 0 mm 6 m/s 768 mmHg 35%
    13:00 +19°C° 0 mm 5 m/s 768 mmHg 32%
    14:00 +19°C° 0 mm 5 m/s 768 mmHg 32%
    15:00 +19°C° 0 mm 4 m/s 767 mmHg 31%
    16:00 +20°C° 0 mm 3 m/s 767 mmHg 30%
    17:00 +18°C° 0 mm 3 m/s 767 mmHg 34%
    18:00 +17°C° 0 mm 3 m/s 767 mmHg 38%
    19:00 +16°C° 0 mm 3 m/s 767 mmHg 42%
    20:00 +14°C° 0 mm 3 m/s 767 mmHg 43%
    21:00 +14°C° 0 mm 3 m/s 768 mmHg 44%
    22:00 +14°C° 0 mm 3 m/s 768 mmHg 46%
    23:00 +13°C° 0 mm 3 m/s 768 mmHg 47%

    Poimâine, 20 Decembrie, Joi

    Timp Temperatura Precipitaţii Vânt Presiune Umiditate
    00:00 +14°C° 0 mm 2 m/s 768 mmHg 48%
    01:00 +13°C° 0 mm 2 m/s 768 mmHg 49%
    02:00 +13°C° 0 mm 2 m/s 768 mmHg 49%
    03:00 +13°C° 0 mm 2 m/s 768 mmHg 49%
    04:00 +13°C° 0 mm 1 m/s 768 mmHg 49%
    05:00 +12°C° 0 mm 1 m/s 768 mmHg 49%
    06:00 +12°C° 0 mm 1 m/s 768 mmHg 49%
    07:00 +11°C° 0 mm 0 m/s 768 mmHg 49%
    08:00 +14°C° 0 mm 1 m/s 769 mmHg 44%
    09:00 +16°C° 0 mm 1 m/s 769 mmHg 39%
    10:00 +18°C° 0 mm 2 m/s 769 mmHg 34%
    11:00 +19°C° 0 mm 2 m/s 769 mmHg 34%
    12:00 +20°C° 0 mm 2 m/s 769 mmHg 34%
    13:00 +20°C° 0 mm 2 m/s 768 mmHg 34%
    14:00 +20°C° 0 mm 3 m/s 768 mmHg 36%
    15:00 +20°C° 0 mm 3 m/s 768 mmHg 38%
    16:00 +20°C° 0 mm 3 m/s 768 mmHg 41%
    17:00 +19°C° 0 mm 3 m/s 768 mmHg 47%
    18:00 +18°C° 0 mm 3 m/s 769 mmHg 53%
    19:00 +17°C° 0 mm 4 m/s 769 mmHg 59%
    20:00 +17°C° 0 mm 4 m/s 770 mmHg 64%
    21:00 +15°C° 0 mm 4 m/s 770 mmHg 70%
    22:00 +15°C° 0 mm 4 m/s 770 mmHg 75%
    23:00 +15°C° 0 mm 4 m/s 771 mmHg 77%

    21 Decembrie, Vineri

    Timp Temperatura Precipitaţii Vânt Presiune Umiditate
    00:00 +15°C° 0 mm 4 m/s 771 mmHg 78%
    01:00 +15°C° 0 mm 5 m/s 771 mmHg 79%
    02:00 +14°C° 0 mm 5 m/s 771 mmHg 78%
    03:00 +14°C° 0 mm 5 m/s 771 mmHg 78%
    04:00 +14°C° 0 mm 5 m/s 771 mmHg 77%
    05:00 +14°C° 0 mm 6 m/s 771 mmHg 77%
    06:00 +13°C° 0 mm 6 m/s 771 mmHg 77%
    07:00 +13°C° 0 mm 6 m/s 772 mmHg 77%
    08:00 +14°C° 0 mm 6 m/s 772 mmHg 72%
    09:00 +15°C° 0 mm 6 m/s 773 mmHg 67%
    10:00 +16°C° 0 mm 6 m/s 773 mmHg 62%
    11:00 +16°C° 0 mm 6 m/s 773 mmHg 58%
    12:00 +17°C° 0 mm 6 m/s 773 mmHg 54%
    13:00 +17°C° 0 mm 6 m/s 773 mmHg 50%
    14:00 +17°C° 0 mm 6 m/s 773 mmHg 50%
    15:00 +17°C° 0 mm 6 m/s 773 mmHg 50%
    16:00 +17°C° 0 mm 6 m/s 773 mmHg 50%
    17:00 +16°C° 0 mm 6 m/s 773 mmHg 54%
    18:00 +16°C° 0 mm 5 m/s 773 mmHg 57%
    19:00 +15°C° 0 mm 5 m/s 774 mmHg 61%
    20:00 +15°C° 0 mm 5 m/s 774 mmHg 64%
    21:00 +14°C° 0 mm 5 m/s 774 mmHg 66%
    22:00 +14°C° 0 mm 4 m/s 774 mmHg 69%
    23:00 +14°C° 0 mm 4 m/s 774 mmHg 71%

    22 Decembrie, Sâmbătă

    Timp Temperatura Precipitaţii Vânt Presiune Umiditate
    00:00 +13°C° 0 mm 4 m/s 774 mmHg 72%
    01:00 +13°C° 0 mm 4 m/s 774 mmHg 74%
    02:00 +13°C° 0 mm 4 m/s 774 mmHg 75%
    03:00 +12°C° 0 mm 4 m/s 774 mmHg 75%
    04:00 +12°C° 0 mm 4 m/s 773 mmHg 76%
    05:00 +12°C° 0 mm 3 m/s 774 mmHg 77%
    06:00 +11°C° 0 mm 3 m/s 774 mmHg 79%
    07:00 +11°C° 0 mm 3 m/s 774 mmHg 80%
    08:00 +12°C° 0 mm 3 m/s 774 mmHg 74%
    09:00 +13°C° 0 mm 3 m/s 774 mmHg 68%
    10:00 +16°C° 0 mm 3 m/s 775 mmHg 63%
    11:00 +16°C° 0 mm 3 m/s 774 mmHg 57%
    12:00 +17°C° 0 mm 3 m/s 774 mmHg 52%
    13:00 +18°C° 0 mm 3 m/s 773 mmHg 47%
    14:00 +18°C° 0 mm 2 m/s 773 mmHg 44%
    15:00 +19°C° 0 mm 2 m/s 773 mmHg 42%
    16:00 +19°C° 0 mm 2 m/s 773 mmHg 39%
    17:00 +19°C° 0 mm 1 m/s 773 mmHg 43%
    18:00 +18°C° 0 mm 1 m/s 773 mmHg 47%
    19:00 +16°C° 0 mm 1 m/s 773 mmHg 51%
    20:00 +15°C° 0 mm 2 m/s 773 mmHg 54%
    21:00 +15°C° 0 mm 2 m/s 773 mmHg 57%
    22:00 +14°C° 0 mm 3 m/s 773 mmHg 60%
    23:00 +14°C° 0 mm 3 m/s 773 mmHg 62%

    23 Decembrie, Duminică

    Timp Temperatura Precipitaţii Vânt Presiune Umiditate
    00:00 +13°C° 0 mm 3 m/s 773 mmHg 64%
    01:00 +13°C° 0 mm 3 m/s 773 mmHg 66%
    02:00 +13°C° 0 mm 3 m/s 772 mmHg 66%
    03:00 +12°C° 0 mm 3 m/s 772 mmHg 66%
    04:00 +12°C° 0 mm 3 m/s 772 mmHg 65%
    05:00 +12°C° 0 mm 3 m/s 772 mmHg 65%
    06:00 +11°C° 0 mm 3 m/s 772 mmHg 65%
    07:00 +12°C° 0 mm 2 m/s 772 mmHg 64%
    08:00 +14°C° 0 mm 2 m/s 772 mmHg 58%
    09:00 +15°C° 0 mm 2 m/s 773 mmHg 52%
    10:00 +17°C° 0 mm 2 m/s 773 mmHg 45%
    11:00 +18°C° 0 mm 2 m/s 772 mmHg 41%
    12:00 +19°C° 0 mm 2 m/s 772 mmHg 37%
    13:00 +20°C° 0 mm 2 m/s 771 mmHg 32%
    14:00 +21°C° 0 mm 1 m/s 771 mmHg 32%
    15:00 +21°C° 0 mm 1 m/s 771 mmHg 32%
    16:00 +21°C° 0 mm 1 m/s 771 mmHg 32%
    17:00 +20°C° 0 mm 1 m/s 771 mmHg 35%
    18:00 +19°C° 0 mm 1 m/s 771 mmHg 38%
    19:00 +16°C° 0 mm 1 m/s 772 mmHg 41%
    20:00 +16°C° 0 mm 1 m/s 772 mmHg 43%
    21:00 +16°C° 0 mm 1 m/s 772 mmHg 45%
    22:00 +16°C° 0 mm 1 m/s 772 mmHg 46%
    23:00 +15°C° 0 mm 1 m/s 772 mmHg 47%
    Arată mai mult